Location: ?????
(44.4284°N, 135.2222°E)
Time: 13:05:33
(UTC+00:00)

Meteor 2-4 Rocket - Pass Details

Date: 19 May 2025
Orbit: 798 x 906 km, 81.2° (Epoch: 20 June)

Event Time Altitude Azimuth Distance (km) Brightness Sun altitude
Exits shadow 14:00:45 53° 122° (ESE) 1,055 3.9 -24.5°
Maximum altitude 14:01:24 56° 95° (E) 1,022 3.9 -24.5°
Drops below altitude 10° 14:07:03 10° 18° (NNE) 2,550 7.0 -24.7°
Sets 14:09:34 0° 15° (NNE) 3,507 7.9 -24.8°
